Location: Chmeln�
(49.6483°N, 14.9871°E)
Time: 03:03:02
(UTC+00:00)

MOS 1 Rocket - Pass Details

Date: 18 September 2020
Orbit: 614 x 831 km, 97.4° (Epoch: 24 October)

Event Time Altitude Azimuth Distance (km) Brightness Sun altitude
Rises 18:56:15 0° 7° (N) 3,050 6.8 -18.1°
Reaches altitude 10° 18:58:38 10° 1° (N) 2,098 6.1 -18.4°
Maximum altitude 19:02:54 41° 292° (WNW) 930 4.5 -19.0°
Drops below altitude 10° 19:06:59 10° 221° (SW) 1,998 5.8 -19.6°
Sets 19:09:12 0° 215° (SW) 2,886 6.6 -19.9°
